Home > Weather > Ballarat > Past weeks

Flag for Australia Past Weather in Ballarat, Victoria, Australia — Yesterday and Last 2 Weeks

Now
42 °F

Quite cool.


Feels Like: 36 °F
Forecast: 36 / 45 °F
Wind: 9 mph from North

Location: Sheoaks Aws

Current Time: Jun 26, 2016 at 9:55:49 PM

Latest Report: Jun 26, 2016 at 9:00 PM


Visibility: N/A

Pressure: 30.01 "Hg

Humidity: 80%

Dew Point: 36 °F

Location of BallaratLocation

Past Weather in Ballarat — Graph

°F

Ballarat Temperature Yesterday

Maximum temperature yesterday: 50 °F (at 3:00 PM)
Minimum temperature yesterday: 37 °F (at 11:00 PM)
Average temperature yesterday: 42 °F

High & Low Weather Summary for the Past Weeks

 TemperatureHumidityPressure
High59 °F (Jun 15, 2:00 PM)100% (Jun 17, 11:00 PM)30.63 "Hg (Jun 17, 11:00 PM)
Low35 °F (Jun 26, 8:00 AM)56% (Jun 13, 3:00 PM)29.35 "Hg (Jun 23, 2:00 PM)
Average47 °F82%30.04 "Hg
* Reported Jun 11 8:00 PM — Jun 26 8:00 PM, Ballarat, Weather by CustomWeather, © 2016

Note: Actual official high and low records may vary slightly from our data, if they occured in-between our weather recording intervals... More about our weather records

Advertising

Ballarat Weather History for the Previous 24 Hours

Scroll right to see more
 ConditionsComfort  
Time TempWeatherWind HumidityBarometerVisibility
8:00 PM
Sun, Jun 26
42 °FQuite cool.9 mph77%30.02 "HgN/A
6:00 PM43 °FQuite cool.8 mph74%30.00 "HgN/A
5:00 PM44 °FQuite cool.9 mph70%30.00 "HgN/A
3:00 PM48 °FCool.12 mph61%30.01 "HgN/A
2:00 PM46 °FCool.14 mph64%30.03 "HgN/A
12:00 PM46 °FCool.14 mph65%30.06 "HgN/A
11:00 AM47 °FCool.7 mph69%30.09 "HgN/A
9:00 AM37 °FChilly.2 mph92%30.12 "HgN/A
8:00 AM35 °FChilly.5 mph95%30.13 "HgN/A
6:00 AM35 °FChilly.6 mph94%30.13 "HgN/A
5:00 AM35 °FChilly.7 mph95%30.13 "HgN/A
3:00 AM35 °FChilly.6 mph95%30.14 "HgN/A
2:00 AM36 °FChilly.7 mph95%30.15 "HgN/A
12:00 AM36 °FChilly.6 mph95%30.17 "HgN/A
11:00 PM
Sat, Jun 25
37 °FChilly.6 mph94%30.18 "HgN/A
9:00 PM37 °FChilly.5 mph94%30.19 "HgN/A
Weather by CustomWeather, © 2016

See weather overviewHow to use our weather pages